Time,TemperatureF,DewpointF,PressureIn,WindDirection,WindDirectionDegrees,WindSpeedMPH,WindSpeedGustMPH,Humidity,HourlyPrecipIn,Conditions,Clouds,dailyrainin,SoftwareType,DateUTC
2013-09-12 00:02:00,76.8,72.0,29.91,SSW,206,1.0,-999.0,84,-99.99,,,0.00,weatherlink.com 1.10,2013-09-12 04:02:00,
2013-09-12 00:17:00,76.4,72.0,29.91,SSW,211,3.0,-999.0,85,-99.99,,,0.00,weatherlink.com 1.10,2013-09-12 04:17:00,
2013-09-12 00:32:00,76.0,71.0,29.90,SSW,201,0.0,-999.0,85,-99.99,,,0.00,weatherlink.com 1.10,2013-09-12 04:32:00,
2013-09-12 00:47:00,75.8,71.0,29.90,SSW,201,0.0,-999.0,86,-99.99,,,0.00,weatherlink.com 1.10,2013-09-12 04:47:00,
2013-09-12 01:02:00,75.7,71.0,29.88,SSW,201,1.0,-999.0,86,-99.99,,,0.00,weatherlink.com 1.10,2013-09-12 05:02:00,
2013-09-12 01:17:00,75.4,71.0,29.88,SSW,201,0.0,-999.0,87,-99.99,,,0.00,weatherlink.com 1.10,2013-09-12 05:17:00,
2013-09-12 01:32:00,75.2,71.0,29.88,SSW,201,0.0,-999.0,87,-99.99,,,0.00,weatherlink.com 1.10,2013-09-12 05:32:00,
2013-09-12 01:47:00,75.0,71.0,29.87,SSW,201,0.0,-999.0,87,-99.99,,,0.00,weatherlink.com 1.10,2013-09-12 05:47:00,
2013-09-12 02:02:00,74.8,71.0,29.87,SSW,194,0.0,-999.0,88,-99.99,,,0.00,weatherlink.com 1.10,2013-09-12 06:02:00,
2013-09-12 02:17:00,74.7,71.0,29.86,SSW,199,0.0,-999.0,89,-99.99,,,0.00,weatherlink.com 1.10,2013-09-12 06:17:00,
2013-09-12 02:32:00,74.4,71.0,29.87,South,190,2.0,-999.0,89,-99.99,,,0.00,weatherlink.com 1.10,2013-09-12 06:32:00,
2013-09-12 02:47:00,74.2,71.0,29.87,SSW,199,6.0,-999.0,90,-99.99,,,0.00,weatherlink.com 1.10,2013-09-12 06:47:00,
2013-09-12 03:02:00,74.1,71.0,29.86,South,191,0.0,-999.0,90,-99.99,,,0.00,weatherlink.com 1.10,2013-09-12 07:02:00,
2013-09-12 03:17:00,74.0,71.0,29.86,SSW,192,0.0,-999.0,91,-99.99,,,0.00,weatherlink.com 1.10,2013-09-12 07:17:00,
2013-09-12 03:32:00,73.8,71.0,29.86,SSW,199,0.0,-999.0,91,-99.99,,,0.00,weatherlink.com 1.10,2013-09-12 07:32:00,
2013-09-12 03:47:00,73.8,71.0,29.86,SSW,197,0.0,-999.0,91,-99.99,,,0.00,weatherlink.com 1.10,2013-09-12 07:47:00,
2013-09-12 04:02:00,74.0,71.0,29.86,SSW,194,3.0,-999.0,91,-99.99,,,0.00,weatherlink.com 1.10,2013-09-12 08:02:00,
2013-09-12 04:17:00,74.0,71.0,29.86,SSW,194,2.0,-999.0,91,-99.99,,,0.00,weatherlink.com 1.10,2013-09-12 08:17:00,
2013-09-12 04:32:00,73.9,71.0,29.85,SSW,205,0.0,-999.0,91,-99.99,,,0.00,weatherlink.com 1.10,2013-09-12 08:32:00,
2013-09-12 04:47:00,73.5,71.0,29.85,SSW,196,0.0,-999.0,91,-99.99,,,0.00,weatherlink.com 1.10,2013-09-12 08:47:00,
2013-09-12 05:02:00,73.2,71.0,29.85,SSW,196,0.0,-999.0,92,-99.99,,,0.00,weatherlink.com 1.10,2013-09-12 09:02:00,
2013-09-12 05:17:00,72.8,70.0,29.85,SSW,194,0.0,-999.0,92,-99.99,,,0.00,weatherlink.com 1.10,2013-09-12 09:17:00,
2013-09-12 05:32:00,72.6,71.0,29.85,SSW,194,1.0,-999.0,93,-99.99,,,0.00,weatherlink.com 1.10,2013-09-12 09:32:00,
2013-09-12 05:47:00,72.5,70.0,29.85,SSW,201,0.0,-999.0,93,-99.99,,,0.00,weatherlink.com 1.10,2013-09-12 09:47:00,
2013-09-12 06:02:00,72.3,71.0,29.85,South,190,0.0,-999.0,94,-99.99,,,0.00,weatherlink.com 1.10,2013-09-12 10:02:00,
2013-09-12 06:17:00,72.1,70.0,29.84,SSW,192,2.0,-999.0,94,-99.99,,,0.00,weatherlink.com 1.10,2013-09-12 10:17:00,
2013-09-12 06:32:00,71.9,70.0,29.85,SSW,193,0.0,-999.0,94,-99.99,,,0.00,weatherlink.com 1.10,2013-09-12 10:32:00,
2013-09-12 06:47:00,71.7,70.0,29.84,South,191,3.0,-999.0,95,-99.99,,,0.00,weatherlink.com 1.10,2013-09-12 10:47:00,
2013-09-12 07:02:00,71.7,70.0,29.85,SSW,205,4.0,-999.0,95,-99.99,,,0.00,weatherlink.com 1.10,2013-09-12 11:02:00,
2013-09-12 07:17:00,71.8,70.0,29.85,SSW,200,0.0,-999.0,95,-99.99,,,0.00,weatherlink.com 1.10,2013-09-12 11:17:00,
2013-09-12 07:32:00,72.0,71.0,29.84,SSW,197,0.0,-999.0,95,-99.99,,,0.00,weatherlink.com 1.10,2013-09-12 11:32:00,
2013-09-12 07:47:00,72.2,71.0,29.84,SSW,199,2.0,-999.0,95,-99.99,,,0.00,weatherlink.com 1.10,2013-09-12 11:47:00,
2013-09-12 08:02:00,72.4,71.0,29.83,South,186,2.0,-999.0,95,-99.99,,,0.00,weatherlink.com 1.10,2013-09-12 12:02:00,
2013-09-12 08:17:00,73.1,72.0,29.83,SSW,203,3.0,-999.0,95,-99.99,,,0.00,weatherlink.com 1.10,2013-09-12 12:17:00,
2013-09-12 08:32:00,74.0,72.0,29.83,SW,225,7.0,-999.0,93,-99.99,,,0.00,weatherlink.com 1.10,2013-09-12 12:32:00,
2013-09-12 08:47:00,75.0,73.0,29.83,SW,229,4.0,-999.0,92,-99.99,,,0.00,weatherlink.com 1.10,2013-09-12 12:47:00,
2013-09-12 09:02:00,76.2,73.0,29.83,SSW,196,7.0,-999.0,89,-99.99,,,0.00,weatherlink.com 1.10,2013-09-12 13:02:00,
2013-09-12 09:17:00,77.4,73.0,29.82,SW,229,7.0,-999.0,87,-99.99,,,0.00,weatherlink.com 1.10,2013-09-12 13:17:00,
2013-09-12 09:32:00,78.5,74.0,29.82,SE,127,1.0,-999.0,85,-99.99,,,0.00,weatherlink.com 1.10,2013-09-12 13:32:00,
2013-09-12 09:47:00,79.0,74.0,29.81,WSW,240,5.0,-999.0,83,-99.99,,,0.00,weatherlink.com 1.10,2013-09-12 13:47:00,
2013-09-12 10:02:00,79.4,74.0,29.81,SSW,197,9.0,-999.0,83,-99.99,,,0.00,weatherlink.com 1.10,2013-09-12 14:02:00,
2013-09-12 10:17:00,80.3,74.0,29.80,South,189,1.0,-999.0,82,-99.99,,,0.00,weatherlink.com 1.10,2013-09-12 14:17:00,
2013-09-12 10:32:00,81.5,74.0,29.80,SSW,196,5.0,-999.0,79,-99.99,,,0.00,weatherlink.com 1.10,2013-09-12 14:32:00,
2013-09-12 10:47:00,82.5,75.0,29.80,SSW,193,2.0,-999.0,78,-99.99,,,0.00,weatherlink.com 1.10,2013-09-12 14:47:00,
2013-09-12 11:02:00,83.0,74.0,29.79,South,182,1.0,-999.0,75,-99.99,,,0.00,weatherlink.com 1.10,2013-09-12 15:02:00,
2013-09-12 11:17:00,83.7,75.0,29.78,SSW,200,2.0,-999.0,74,-99.99,,,0.00,weatherlink.com 1.10,2013-09-12 15:17:00,
2013-09-12 11:32:00,84.5,75.0,29.78,SSW,208,8.0,-999.0,73,-99.99,,,0.00,weatherlink.com 1.10,2013-09-12 15:32:00,
2013-09-12 11:47:00,85.2,75.0,29.77,South,180,12.0,-999.0,72,-99.99,,,0.00,weatherlink.com 1.10,2013-09-12 15:47:00,
2013-09-12 12:02:00,86.3,75.0,29.77,South,187,7.0,-999.0,70,-99.99,,,0.00,weatherlink.com 1.10,2013-09-12 16:02:00,
2013-09-12 12:17:00,86.5,75.0,29.76,South,180,9.0,-999.0,69,-99.99,,,0.00,weatherlink.com 1.10,2013-09-12 16:17:00,
2013-09-12 12:32:00,87.9,75.0,29.75,SSE,150,1.0,-999.0,66,-99.99,,,0.00,weatherlink.com 1.10,2013-09-12 16:32:00,
2013-09-12 12:47:00,87.7,75.0,29.75,SSW,195,7.0,-999.0,66,-99.99,,,0.00,weatherlink.com 1.10,2013-09-12 16:47:00,
2013-09-12 13:02:00,88.0,74.0,29.74,SSW,195,8.0,-999.0,64,-99.99,,,0.00,weatherlink.com 1.10,2013-09-12 17:02:00,
2013-09-12 13:17:00,88.1,75.0,29.74,SSW,194,8.0,-999.0,65,-99.99,,,0.00,weatherlink.com 1.10,2013-09-12 17:17:00,
2013-09-12 13:32:00,87.5,74.0,29.73,SW,229,6.0,-999.0,65,-99.99,,,0.00,weatherlink.com 1.10,2013-09-12 17:32:00,
2013-09-12 13:47:00,83.2,71.0,29.74,West,280,9.0,-999.0,66,-99.99,,,0.00,weatherlink.com 1.10,2013-09-12 17:47:00,
2013-09-12 14:02:00,78.6,72.0,29.73,SSW,192,4.0,-999.0,79,-99.99,,,0.01,weatherlink.com 1.10,2013-09-12 18:02:00,
2013-09-12 14:17:00,74.8,71.0,29.73,NNW,342,0.0,-999.0,88,-99.99,,,0.16,weatherlink.com 1.10,2013-09-12 18:17:00,
2013-09-12 14:32:00,74.7,73.0,29.71,NNW,342,0.0,-999.0,93,-99.99,,,0.16,weatherlink.com 1.10,2013-09-12 18:32:00,
2013-09-12 14:47:00,75.2,73.0,29.71,ENE,76,0.0,-999.0,94,-99.99,,,0.16,weatherlink.com 1.10,2013-09-12 18:47:00,
2013-09-12 15:02:00,75.9,74.0,29.70,East,79,0.0,-999.0,94,-99.99,,,0.16,weatherlink.com 1.10,2013-09-12 19:02:00,
2013-09-12 15:17:00,76.7,75.0,29.69,NE,41,0.0,-999.0,93,-99.99,,,0.16,weatherlink.com 1.10,2013-09-12 19:17:00,
2013-09-12 15:32:00,77.4,75.0,29.68,NE,41,0.0,-999.0,92,-99.99,,,0.16,weatherlink.com 1.10,2013-09-12 19:32:00,
2013-09-12 15:47:00,77.4,75.0,29.68,South,180,0.0,-999.0,93,-99.99,,,0.18,weatherlink.com 1.10,2013-09-12 19:47:00,
2013-09-12 16:02:00,76.9,75.0,29.66,ESE,103,0.0,-999.0,94,-99.99,,,0.20,weatherlink.com 1.10,2013-09-12 20:02:00,
2013-09-12 16:17:00,76.1,74.0,29.65,SE,140,0.0,-999.0,93,-99.99,,,0.20,weatherlink.com 1.10,2013-09-12 20:17:00,
2013-09-12 16:32:00,76.1,74.0,29.64,SE,137,0.0,-999.0,92,-99.99,,,0.20,weatherlink.com 1.10,2013-09-12 20:32:00,
2013-09-12 16:47:00,76.7,74.0,29.63,SE,144,0.0,-999.0,92,-99.99,,,0.20,weatherlink.com 1.10,2013-09-12 20:47:00,
2013-09-12 17:02:00,77.4,75.0,29.63,SSE,165,0.0,-999.0,92,-99.99,,,0.20,weatherlink.com 1.10,2013-09-12 21:02:00,
2013-09-12 17:17:00,77.4,75.0,29.62,SSE,157,0.0,-999.0,93,-99.99,,,0.20,weatherlink.com 1.10,2013-09-12 21:17:00,
2013-09-12 17:32:00,77.4,75.0,29.63,WNW,286,7.0,-999.0,93,-99.99,,,0.20,weatherlink.com 1.10,2013-09-12 21:32:00,
2013-09-12 17:47:00,75.4,72.0,29.64,NE,46,0.0,-999.0,89,-99.99,,,0.21,weatherlink.com 1.10,2013-09-12 21:47:00,
2013-09-12 18:02:00,74.6,73.0,29.64,NE,55,0.0,-999.0,93,-99.99,,,0.27,weatherlink.com 1.10,2013-09-12 22:02:00,
2013-09-12 18:17:00,74.2,72.0,29.62,NE,55,0.0,-999.0,94,-99.99,,,0.27,weatherlink.com 1.10,2013-09-12 22:17:00,
2013-09-12 18:32:00,74.6,73.0,29.62,NE,55,0.0,-999.0,95,-99.99,,,0.27,weatherlink.com 1.10,2013-09-12 22:32:00,
2013-09-12 18:47:00,75.0,74.0,29.62,NE,55,0.0,-999.0,96,-99.99,,,0.27,weatherlink.com 1.10,2013-09-12 22:47:00,
2013-09-12 19:02:00,75.4,74.0,29.61,SSW,194,0.0,-999.0,96,-99.99,,,0.27,weatherlink.com 1.10,2013-09-12 23:02:00,
2013-09-12 19:17:00,75.1,74.0,29.62,South,184,0.0,-999.0,95,-99.99,,,0.27,weatherlink.com 1.10,2013-09-12 23:17:00,
2013-09-12 19:32:00,75.1,73.0,29.63,SSW,199,0.0,-999.0,94,-99.99,,,0.27,weatherlink.com 1.10,2013-09-12 23:32:00,
2013-09-12 19:48:00,75.3,73.0,29.64,SW,214,0.0,-999.0,92,-99.99,,,0.27,weatherlink.com 1.10,2013-09-12 23:48:00,
2013-09-12 20:02:00,74.8,72.0,29.67,West,278,6.0,-999.0,90,-99.99,,,0.27,weatherlink.com 1.10,2013-09-13 00:02:00,
2013-09-12 20:17:00,73.9,71.0,29.66,WNW,286,0.0,-999.0,89,-99.99,,,0.28,weatherlink.com 1.10,2013-09-13 00:17:00,
2013-09-12 20:32:00,73.0,70.0,29.65,WNW,288,0.0,-999.0,91,-99.99,,,0.28,weatherlink.com 1.10,2013-09-13 00:32:00,
2013-09-12 20:47:00,72.5,70.0,29.65,WNW,288,0.0,-999.0,92,-99.99,,,0.28,weatherlink.com 1.10,2013-09-13 00:47:00,
2013-09-12 21:02:00,72.1,70.0,29.64,WNW,288,0.0,-999.0,93,-99.99,,,0.28,weatherlink.com 1.10,2013-09-13 01:02:00,
2013-09-12 21:17:00,71.8,70.0,29.64,WNW,288,0.0,-999.0,94,-99.99,,,0.28,weatherlink.com 1.10,2013-09-13 01:17:00,
2013-09-12 21:32:00,71.6,70.0,29.64,WNW,288,0.0,-999.0,95,-99.99,,,0.28,weatherlink.com 1.10,2013-09-13 01:32:00,
2013-09-12 21:47:00,71.5,70.0,29.64,WNW,288,0.0,-999.0,95,-99.99,,,0.28,weatherlink.com 1.10,2013-09-13 01:47:00,
2013-09-12 22:02:00,71.5,70.0,29.64,WNW,288,0.0,-999.0,96,-99.99,,,0.28,weatherlink.com 1.10,2013-09-13 02:02:00,
2013-09-12 22:17:00,71.4,70.0,29.64,WNW,288,2.0,-999.0,96,-99.99,,,0.28,weatherlink.com 1.10,2013-09-13 02:17:00,
2013-09-12 22:32:00,71.3,70.0,29.64,WSW,238,0.0,-999.0,96,-99.99,,,0.28,weatherlink.com 1.10,2013-09-13 02:32:00,
2013-09-12 22:47:00,71.1,70.0,29.63,WSW,238,0.0,-999.0,96,-99.99,,,0.28,weatherlink.com 1.10,2013-09-13 02:47:00,
2013-09-12 23:02:00,70.8,69.0,29.62,WSW,238,1.0,-999.0,95,-99.99,,,0.28,weatherlink.com 1.10,2013-09-13 03:02:00,
2013-09-12 23:17:00,70.5,69.0,29.62,WSW,238,0.0,-999.0,96,-99.99,,,0.28,weatherlink.com 1.10,2013-09-13 03:17:00,
2013-09-12 23:32:00,70.4,69.0,29.62,SW,227,5.0,-999.0,96,-99.99,,,0.28,weatherlink.com 1.10,2013-09-13 03:32:00,
2013-09-12 23:47:00,70.4,69.0,29.61,SSW,206,0.0,-999.0,96,-99.99,,,0.28,weatherlink.com 1.10,2013-09-13 03:47:00,